Find NEXTSAT-2

NORAD ID: 56743 Int'l Des: 2023-072 Owner: KAIST Country: KR operational
LEOCIRCULARRETROGRADESSO

Live-Position

3D-Globus wird geladen...

Über NEXTSAT-2

Beschreibung wird geladen...

Nächste Überflüge

Passes for default location (London). Set your location on the main map for personalized predictions.

Höhenverlauf

Loading altitude history...

Zweizeiliger Elementsatz

1 56743U 23072A 26106.98025551 .00004340 00000-0 16660-3 0 9992
2 56743 97.5283 303.4317 0004778 224.4380 135.6476 15.27001587160253
Epoch: 16. Apr. 2026 • Age: 13 hours

Aktueller Status

Höhe 489.4 km
Geschwindigkeit 7.62 km/s
Subsatellitenpunkt 37.35°N, 93.14°E
Startdatum 25. Mai 2023
Alter 2.8 years
Typ other

Technische Details

Klassifizierung Payload
Masse 180.00 kg
Trockenmasse 180.00 kg
Gesamtmasse 180.00 kg
Länge 0.97 m
Durchmesser 1.34 m
Spannweite 5.20 m
Form Box+pan
Hersteller SATREC
Bus-Typ NEXTSat
Phasenstatus In Orbit
Besitzer/Staat KAIST/KR

Most Searched